Regional Weather Roundup
Issued by NWS

Home | Current Version | Previous Version | Graphics & Text | Print | Product List | Glossary On
Versions: 1 2 3 4 5 6 7 8 9 10 11 12 13 14 15 16 17 18 19 20 21 22 23 24 25 26 27 28 29 30 31 32 33 34 35 36 37 38 39 40 41 42 43 44 45 46 47 48 49 50
000
ASUS43 KBIS 241810
RWRND

NORTH DAKOTA REGIONAL WEATHER ROUNDUP
NATIONAL WEATHER SERVICE BISMARCK ND
100 PM CDT SAT JUN 24 2017

NOTE: "FAIR" INDICATES FEW OR NO CLOUDS BELOW 12,000 FEET WITH NO
SIGNIFICANT WEATHER AND/OR OBSTRUCTIONS TO VISIBILITY.


NDZ001>003-009>011-017-241900-
NORTHWEST NORTH DAKOTA

CITY           SKY/WX    TMP DP  RH WIND       PRES   REMARKS
WILLISTON      PTSUNNY   64  35  34 N18G31    30.29S
6HR MIN TEMP:  47; 6HR MAX TEMP:  64;

MINOT          CLOUDY    57  43  59 NW22G30   30.21R
MINOT AFB      PTSUNNY   57  43  58 N18G28    30.20R
$$

NDZ018>021-031>035-040>046-241900-
SOUTHWEST NORTH DAKOTA

CITY           SKY/WX    TMP DP  RH WIND       PRES   REMARKS
BISMARCK       MOSUNNY   61  38  42 NW21G31   30.22R
6HR MIN TEMP:  50; 6HR MAX TEMP:  61;

DICKINSON      SUNNY     62  31  31 N20G36    30.25R
GARRISON         N/A     56  41  57 N20G29    30.21S
6HR MIN TEMP:  44; 6HR MAX TEMP:  56;

HETTINGER ARPT SUNNY     65  30  27 NW22G35   30.26S
$$

NDZ004>008-012>016-024-026-027-054-241900-
NORTHEAST NORTH DAKOTA

CITY           SKY/WX    TMP DP  RH WIND       PRES   REMARKS
GRAND FORKS    LGT RAIN  55  53  93 W14G26    30.03R FOG
GRND FRKS AFB  LGT RAIN  54  49  85 NW14G26   30.04S
DEVILS LAKE    CLOUDY    53  45  74 NW23G30   30.11R
$$

NDZ022-023-025-028>030-036>039-047>053-241900-
SOUTHEAST NORTH DAKOTA

CITY           SKY/WX    TMP DP  RH WIND       PRES   REMARKS
FARGO          CLOUDY    60  44  55 NW18G25   30.05R
6HR MIN TEMP:  52; 6HR MAX TEMP:  62; 6HR PCP:  0.03;

JAMESTOWN      CLOUDY    57  41  55 NW20G31   30.12R
$$





USA.gov is the U.S. government's official web portal to all federal, state and local government web resources and services.